Regional Weather Roundup
Issued by NWS Grand Forks, ND

Home | Current Version | Previous Version | Text Only | Print | Product List | Glossary Off
Versions: 1 2 3 4 5 6 7 8 9 10 11 12 13 14 15 16 17 18 19 20 21 22 23 24 25 26 27 28 29 30 31 32 33 34 35 36 37 38 39 40 41 42 43 44 45 46 47 48 49 50

000
ASUS43 KFGF 240031
RWRFGF
PRAIRIE TO PINES  WEATHER ROUNDUP
NATIONAL WEATHER SERVICE EASTERN NORTH DAKOTA/GRAND FORKS ND
700 PM CDT SAT JUL 23 2016

 **SATELLITE DATA USED TO AUGMENT SKY COVER AT AUTOMATED STATIONS**
 *****  WEATHER ACROSS EASTERN NORTH DAKOTA  *****

CITY           SKY/WX    TMP DP  RH WIND       PRES   REMARKS
GRAND FORKS    CLOUDY    71  68  90 NW5       29.71F
6HR MIN TEMP:  65; 6HR MAX TEMP:  74; 6HR PCP:  0.41;

GRAND FRKS AFB LGT RAIN  70  68  94 W1        29.72F
GRAND FRKS NWS   N/A     70 N/A N/A NW6         N/A
DEVILS LAKE    CLOUDY    74  70  87 W6        29.75F
6HR MIN TEMP:  69; 6HR MAX TEMP:  76; 6HR PCP:  0.01;

FARGO          CLOUDY    82  72  71 S9        29.69S
WAHPETON ARPT  CLOUDY    79  70  73 S9        29.71S
$$

 ***** WEATHER ACROSS CENTRAL AND WESTERN NORTH DAKOTA  *****

CITY           SKY/WX    TMP DP  RH WIND       PRES   REMARKS
BISMARCK       SUNNY     84  51  31 W14G22    29.81S
6HR MIN TEMP:  76; 6HR MAX TEMP:  85;

MINOT          SUNNY     83  54  36 W16G29    29.77R
6HR MIN TEMP:  73; 6HR MAX TEMP:  86;

JAMESTOWN      CLOUDY    77  69  76 NW12      29.76R
6HR MIN TEMP:  72; 6HR MAX TEMP:  79;

MINOT AFB      SUNNY     79  56  44 W14G28    29.76R
GARRISON         N/A     80  55  42 W12       29.80S
WILLISTON      MOSUNNY   78  53  41 NW22G30   29.87R
6HR MIN TEMP:  78; 6HR MAX TEMP:  83;

DICKINSON      SUNNY     79  44  28 W17       29.87S
6HR MIN TEMP:  77; 6HR MAX TEMP:  82;

HETTINGER      SUNNY     85  41  21 NW22G31   29.91S
6HR MIN TEMP:  83; 6HR MAX TEMP:  88;

$$

 *****  OTHER AIRPORT OBSERVATIONS IN OUR AREA  *****

CITY           SKY/WX    TMP DP  RH WIND       PRES   REMARKS
WALHALLA       FAIR      73  68  83 S10G18    29.69F
GRAFTON AIRPOR FAIR      73  70  88 SW5       29.72F
VALLEY CITY AR FAIR      77  75  94 W9        29.77R
CANDO          FAIR      75  70  83 SW6       29.76S
CAVALIER APRT  MOCLDY    72  68  88 S8        29.70S
GWINNER        FAIR      84  75  74 W10       29.73S HX  92
SHEYENNE NWR     N/A     84  74  71 SW6       29.95S HX  91
ROLLA            N/A     73  61  64 W10G22    29.75S
 ***** THE ABOVE OBSERVATIONS ARE NON NWS ARE NOT QUALITY
       CONTROLLED AND MAY MIS-REPORT RAIN FOR SNOW...
$$

  *****  WEATHER ACROSS NORTHERN MINNESOTA  *****

CITY           SKY/WX    TMP DP  RH WIND       PRES   REMARKS
FLAG ISLAND    MOSUNNY   73  66  78 E6G16     29.69F
WARROAD        MOSUNNY   75  72  88 SW8       29.72F
ROSEAU         MOSUNNY   73  68  83 CALM      29.71F
HALLOCK        PTSUNNY   73  70  88 W5        29.69F
THF RVR FALLS  CLOUDY    73  71  93 CALM      29.73F
6HR MIN TEMP:  66; 6HR MAX TEMP:  77; 6HR PCP:  0.42;

BAUDETTE       CLOUDY    76  71  85 SE6       29.72F
6HR MIN TEMP:  71; 6HR MAX TEMP:  77; 6HR PCP:  0.07;

WASKISH        CLOUDY    77  70  78 SE6       29.73F
CROOKSTON      SUNNY     79  72  78 CALM      29.71S
STEPHEN NDAWN    N/A     72  66  83 SW3         N/A
GREENBUSH NDAW   N/A     73  68  83 SW3         N/A
$$
  *****  WEATHER ACROSS CENTRAL AND WEST MINNESOTA  *****

CITY           SKY/WX    TMP DP  RH WIND       PRES   REMARKS
FOSSTON        LGT RAIN  73  70  88 S5        29.75S
BEMIDJI        CLOUDY    75  68  78 S8        29.77S
PARK RAPIDS    CLOUDY    79  69  71 S9        29.78R
6HR MIN TEMP:  72; 6HR MAX TEMP:  80; 6HR PCP:  0.14;

ELBOW LAKE     FAIR      79  73  83 SE12      29.74S
WADENA         PTSUNNY   77  70  78 SE9       29.76F
DETROIT LAKES  CLOUDY    77  70  78 SE10      29.75F
MOORHEAD       MOSUNNY   81  72  74 S7        29.71S
FERGUS FALLS   PTSUNNY   79  72  78 S9        29.74R
MORRIS MN      SUNNY     81  73  78 SE13G18   29.72F
STAPLES        MOSUNNY   75  66  73 S7        29.78S
$$
  *****  WEATHER ELSEWHERE ACROSS MINNESOTA  *****

CITY           SKY/WX    TMP DP  RH WIND       PRES   REMARKS
DULUTH         PTSUNNY   71  64  78 SE8       29.86F
6HR MIN TEMP:  68; 6HR MAX TEMP:  73;

INTRNTL FALLS  CLOUDY    76  65  68 SE10      29.77S
6HR MIN TEMP:  76; 6HR MAX TEMP:  79;

ELY            CLOUDY    72  61  68 S3        29.86F
CLOQUET        CLOUDY    70  61  73 E7        29.85F
WHEATON        SUNNY     82  75  78 SE9       29.72F
BRAINERD       PTSUNNY   73  68  84 SE5       29.80S
6HR MIN TEMP:  70; 6HR MAX TEMP:  78; 6HR PCP:  0.29;

HIBBING        PTSUNNY   72  66  81 SE9       29.83S
6HR MIN TEMP:  71; 6HR MAX TEMP:  76;

ALEXANDRIA     PTSUNNY   79  71  76 SE12      29.78S
6HR MIN TEMP:  70; 6HR MAX TEMP:  80; 6HR PCP:  0.01;

SAINT CLOUD    SUNNY     76  71  85 SE10      29.77F
6HR MIN TEMP:  69; 6HR MAX TEMP:  77; 6HR PCP:  0.49;

MINNEAPOLIS    MOSUNNY   75  70  84 SE12      29.80F
6HR MIN TEMP:  71; 6HR MAX TEMP:  76; 6HR PCP:  0.87;

$$

  *****  WEATHER ACROSS SOUTH DAKOTA  *****

CITY           SKY/WX    TMP DP  RH WIND       PRES   REMARKS
SIOUX FALLS    MOSUNNY   90  72  55 SW8       29.74S HX  97
6HR MIN TEMP:  86; 6HR MAX TEMP:  91;

BROOKINGS      SUNNY     89  75  63 S6        29.74F HX  99
WATERTOWN      SUNNY     90  74  59 S10       29.73F HX  99
6HR MIN TEMP:  83; 6HR MAX TEMP:  91;

HURON          PTSUNNY   89  76  65 NW23G30   29.71R HX 100
6HR MIN TEMP:  87; 6HR MAX TEMP:  94;

SISSETON         N/A     83  77  82 SE10      29.69F HX  92
ABERDEEN       MOSUNNY   86  71  60 NW20G26   29.74R HX  91
6HR MIN TEMP:  84; 6HR MAX TEMP:  92;

MITCHELL       SUNNY     96  74  48 CALM      29.70F HX 107
PIERRE         SUNNY     88  59  37 NW20      29.81R
6HR MIN TEMP:  88; 6HR MAX TEMP:  95;

MOBRIDGE       SUNNY     87  52  29 NW14G24   29.81R
RAPID CITY     SUNNY     87  43  21 N16G24    29.94S
6HR MIN TEMP:  87; 6HR MAX TEMP:  90;

$$

  *****  SOME WEATHER IN NEARBY STATES *****

CITY           SKY/WX    TMP DP  RH WIND       PRES   REMARKS
GLASGOW MT     SUNNY     78  49  35 NW21G31   29.94R
6HR MIN TEMP:  75; 6HR MAX TEMP:  81;

GREAT FALLS MT PTSUNNY   77  39  25 SW13      30.03F
6HR MIN TEMP:  74; 6HR MAX TEMP:  82;

CHEYENNE WY    CLOUDY    78  45  30 SE12      30.12R
6HR MIN TEMP:  78; 6HR MAX TEMP:  94; 6HR PCP: TRACE;

SCOTTSBLUFF NE PTSUNNY   93  58  30 E13       29.94F HX  92
6HR MIN TEMP:  91; 6HR MAX TEMP:  99;

OMAHA NE       MOSUNNY   92  74  55 S16       29.76F HX 101
6HR MIN TEMP:  85; 6HR MAX TEMP:  93;

DES MOINES IA  MOSUNNY   90  77  65 S10       29.81S HX 103
6HR MIN TEMP:  87; 6HR MAX TEMP:  93; 6HR PCP: TRACE;

DAVENPORT IA   CLOUDY    85  79  82 SE7       29.89R HX  98
6HR MIN TEMP:  85; 6HR MAX TEMP:  89;

CHICAGO IL     TSTM      72  70  93 E15       29.96F
6HR MIN TEMP:  73; 6HR MAX TEMP:  91; 6HR PCP:  0.04;

EAU CLAIRE WI  LGT RAIN  71  70  96 E3        29.85F FOG
6HR MIN TEMP:  71; 6HR MAX TEMP:  75; 6HR PCP:  0.29;

LA CROSSE WI   CLOUDY    75  69  81 SE9       29.82F
6HR MIN TEMP:  72; 6HR MAX TEMP:  75; 6HR PCP:  0.52;

$$

  *****  SOME NATIONAL WEATHER *****

CITY           SKY/WX    TMP DP  RH WIND       PRES   REMARKS
LA GUARDIA NY  PTCLDY    95  59  30 NW10      29.80R HX  94
6HR MIN TEMP:  93; 6HR MAX TEMP:  99;

RALEIGH NC     PTCLDY    88  73  61 CALM      29.95S HX  95
6HR MIN TEMP:  88; 6HR MAX TEMP:  95;

ATLANTA GA     MOCLDY    84  70  62 W5        30.01S
6HR MIN TEMP:  83; 6HR MAX TEMP:  93;

NEW ORLEANS LA PTSUNNY   92  75  57 SW8       29.92S HX 103
6HR MIN TEMP:  88; 6HR MAX TEMP:  96; 6HR PCP: TRACE;

OKLAHOMA CITY  SUNNY     97  63  32 S15       29.87S HX  98
6HR MIN TEMP:  97; 6HR MAX TEMP: 100;

ALBUQUERQUE NM PTSUNNY   99  38  12 W3        30.01F HX  94
6HR MIN TEMP:  91; 6HR MAX TEMP: 100;

SALT LAKE CITY MOSUNNY   93  19   7 N15       30.03F
6HR MIN TEMP:  87; 6HR MAX TEMP:  95;

LOS ANGELES CA MOSUNNY   76  66  71 W10       29.81S
6HR MIN TEMP:  76; 6HR MC1F1C2F2C3F3C4F4C5F5C6F6C7F7C8F8C9F9CaFaCbFbCcFcCd!



USA.gov is the U.S. government's official web portal to all federal, state and local government web resources and services.